Location: Allos
(44.2333°N, 6.6333°E)
Time: 21:58:41
(UTC+00:00)

Cosmos 1821 Rocket - Pass Details

Date: 21 April 2021
Orbit: 946 x 1003 km, 82.9° (Epoch: 16 May)

Event Time Altitude Azimuth Distance (km) Brightness Sun altitude
Rises 01:14:32 0° 355° (N) 3,705 7.8 -29.3°
Reaches altitude 10° 01:17:07 10° 360° (N) 2,760 7.1 -29.0°
Maximum altitude 01:23:21 56° 78° (ENE) 1,175 4.5 -28.5°
Enters shadow 01:25:39 37° 135° (SE) 1,497 4.8 -28.3°
